Regional Weather Roundup
Issued by NWS State College, PA

Home | Current Version | Previous Version | Graphics & Text | Print | Product List | Glossary Off
Versions: 1 2 3 4 5 6 7 8 9 10 11 12 13 14 15 16 17 18 19 20 21 22 23 24 25 26 27 28 29 30 31 32 33 34 35 36 37 38 39 40 41 42 43 44 45 46 47 48 49 50

000
ASUS41 KCTP 051210
RWRCTP

REGIONAL WEATHER ROUNDUP
NATIONAL WEATHER SERVICE STATE COLLEGE PA
800 AM EDT THU MAY 05 2016

Note: "fair" indicates few or no clouds below 12,000 feet with no
significant weather and/or obstructions to visibility.

* = STATION THAT DOES NOT REPORT PRECIPITATION /E.G. RAIN...SNOW...ETC/
    THUNDER OR FOG.

PAZ002>004-007>009-013>016-020>023-029>032-051300-
WESTERN PENNSYLVANIA

CITY           SKY/WX    TMP DP  RH WIND       PRES   REMARKS
ERIE           CLOUDY    47  44  90 NE15      29.75R FOG
MEADVILLE      CLOUDY    47  45  93 N3        29.72R
FRANKLIN*      CLOUDY    48  45  87 NE5       29.73R
NEW CASTLE     CLOUDY    49  47  93 NW3       29.72R
BEAVER COUNTY  PTSUNNY   48  46  93 N5        29.70R
BUTLER*        CLOUDY    50  46  87 NE3       29.73R
PITTSBURGH INT CLOUDY    50  46  86 NW5       29.69R
PITTSBURGH     CLOUDY    49  46  90 VRB3      29.69R FOG
INDIANA*       CLOUDY    50  50 100 CALM      29.72R FOG
LATROBE        LGT RAIN  48  48 100 CALM      29.70R FOG
WASHINGTON CO* CLOUDY    48  46  93 NW3       29.70R
$$

PAZ004>006-010>012-017>019-024>028-033>037-041-042-045-046-049>053-051300-
CENTRAL PENNSYLVANIA

CITY           SKY/WX    TMP DP  RH WIND       PRES   REMARKS
BRADFORD       CLOUDY    48  45  89 NE6       29.72R
DUBOIS         CLOUDY   N/A N/A N/A SE7       29.69S
CLEARFIELD     CLOUDY    49  45  86 NE6       29.70S
JOHNSTOWN      CLOUDY    47  43  86 E5        29.67R FOG
ALTOONA        CLOUDY    49  45  86 NE7       29.69R
STATE COLLEGE  CLOUDY    48  46  93 NE9       29.70R
WILLIAMSPORT   CLOUDY    51  45  79 CALM      29.69F
SELINSGROVE    PTSUNNY   53  48  83 NE7       29.70S
FT INDIANTOWN  CLOUDY    49  48  97 E6        29.70R
CAPITAL CITY   CLOUDY    51  45  79 NE8       29.70R
HARRISBURG     CLOUDY    50  45  83 NE6       29.69R
YORK           CLOUDY    49  47  93 NE8       29.68S FOG
$$

PAZ038>040-043-044-047-048-054-055-060>062-067>071-051300-
EASTERN PENNSYLVANIA

CITY           SKY/WX    TMP DP  RH WIND       PRES   REMARKS
SCRANTON       CLOUDY    47  42  83 NE7       29.72R
MOUNT POCONO   CLOUDY    40  39  97 NE8       29.70R
ALLENTOWN      CLOUDY    49  42  77 NE10      29.71R
QUAKERTOWN*    CLOUDY    46  45  93 NE9       29.71S
READING        CLOUDY    49  43  80 VRB6      29.69R
LANCASTER      CLOUDY    48  45  89 NE9       29.68R
COATESVILLE    CLOUDY    46  46 100 N5        29.68F
POTTSTOWN      CLOUDY    48  44  86 NE6       29.70F
BLUE BELL      CLOUDY    46  43  87 NE3       29.69S
DOYLESTOWN     CLOUDY    46  42  86 NE6       29.69S
WILLOW GROVE   NOT AVBL
NORTH PHILA    CLOUDY    49  45  86 NE16      29.70S
PHILADELPHIA   CLOUDY    50  43  77 NE12      29.69S
$$




USA.gov is the U.S. government's official web portal to all federal, state and local government web resources and services.